Location: Floriland Mobile Home Park
(28.9689°N, 81.2966°W)
Time: 11:24:19
(UTC+00:00)

Daily predictions for brighter satellites

Satellite Brightness Start Highest point End
(mag) Time Altitude Azimuth Time Altitude Azimuth Time Altitude Azimuth
Cosmos 2227 4.4 23:17:50 10° S 23:23:26 56° ESE 23:29:01 10° NNE
Mugunghwa Rocket 4.3 23:19:22 10° W 23:25:39 70° S 23:32:23 10° ESE
SL-16 R/B 2.3 23:20:36 10° N 23:26:11 58° ENE 23:31:43 10° SSE
NOAA 12 4.2 23:24:48 10° SSE 23:30:02 85° WSW 23:35:17 10° NNW
STARLINK-67 4.1 23:28:02 10° WSW 23:30:18 28° NW 23:32:34 10° NNE
Okean-O 2.6 23:25:57 10° SSE 23:30:22 73° ENE 23:34:46 10° N
Cosmos 2263 Rocket 2.4 23:27:28 10° S 23:32:47 49° ESE 23:38:08 10° NNE
STARLINK-46 3.2 23:30:45 10° SSW 23:33:10 35° SE 23:35:21 11° ENE
USA 102 3.8 23:31:34 10° SE 23:33:58 53° ENE 23:39:37 10° NNW
ADEOS Rocket 4.1 23:27:42 10° NE 23:34:11 35° E 23:41:00 10° SSE
SKYMED 2 3.8 23:30:58 10° N 23:35:19 74° WNW 23:39:37 10° SSW
OAO 2 Rocket 3.5 23:32:34 10° W 23:37:26 64° NNW 23:42:01 12° ENE
OAO 3 Rocket 3.5 23:33:15 10° W 23:37:50 57° NNW 23:42:05 12° ENE
YAOGAN 1 3.2 23:35:54 10° SE 23:39:46 33° ENE 23:43:39 10° N
USA 238 DEB 3.6 23:33:27 10° SSW 23:40:01 72° ESE 23:46:46 10° NNE
USA 238 3.6 23:33:35 10° SSW 23:40:08 71° ESE 23:46:52 10° NNE
H-2A DEB 4.1 23:36:41 10° WSW 23:41:33 54° S 23:43:46 13° E
GPS 2-05 Rocket1 3.6 23:49:56 10° WNW 23:52:05 24° NNW 23:53:20 17° NNE
CZ-4 R/B 1.3 23:48:21 10° SSE 23:52:21 66° ENE 23:56:28 10° N
